sat.trackr.live / text

‹ back to catalog

ONEWEB-0239

NORAD 48802 · 2021-045AM

PAYLOAD ACTIVE UNKNOWN

§ Identity

Operator
Country
UK
Launch date
2021-05-28
Launch site
VOSTO
Launch vehicle
Mass (kg)
RCS (m²)

Purposes: comms

External: N2YO · Heavens-Above · Gunter

§ Orbital elements

Epoch: 2026-09-15T22:20:59.330400Z

Period
109.46 min
Inclination
87.8982°
Eccentricity
0.0001886
Mean motion
13.15547857 rev/d
Perigee alt
1,200.3 km
Apogee alt
1,203.2 km
Semi-major
7,579.9 km
B*
2.5298e-4
RAAN
241.1092°
Arg perigee
61.0697°
Mean anomaly
299.0623°
Rev number
25,627

§ Raw data

ONEWEB-02391 48802U 21045AM  26258.93124225  .00000108  00000+0  25298-3 0  99922 48802  87.8982 241.1092 0001886  61.0697 299.0623 13.15547857256276

JSON: /api/v1/satellites/48802 · /tle

For live sub-satellite position, see the globe view (requires WebGL).

§ Visibility from observer

Set your observer location to see the next 7 days of passes ≥ 10°. The values pass through the URL so the page stays shareable.

No JS? Fill the form by hand. The geolocation button needs JavaScript.